This demonstration page uses our WeatherBlox Daily Observations layout. Learn more.

Left ArrowRight Arrow

36.17497, -115.13722

Hourly Observations for June 10, 2019

Temp ( °F °C ) Dew Point ( °F °C ) Humidity (%) Winds ( mph kmh ) Pressure ( in mb ) Visibility ( mi km ) Precip ( " mm )
12:53 am 00:53 Clear 78 25.6 20 -6.7 11 11 N 7 11 30.07 1018 10 16 0.00 0.00
1:53 am 01:53 Clear 78 25.6 20 -6.7 11 11 N 10 17 30.07 1018 10 16 0.00 0.00
2:53 am 02:53 Clear 78 25.6 19 -7.2 11 11 NNW 14 22 30.07 1018 10 16 0.00 0.00
3:53 am 03:53 Clear 76 24.4 19 -7.2 12 12 NNW 15 24 30.07 1018 10 16 0.00 0.00
4:53 am 04:53 Clear 75 23.9 19 -7.2 12 12 N 12 19 30.08 1019 10 16 0.00 0.00
5:53 am 05:53 Sunny 74 23.3 19 -7.2 12 12 NNW 13 20 30.09 1019 10 16 0.00 0.00
6:53 am 06:53 Sunny 76 24.4 21 -6.1 13 13 N 9 15 30.11 1020 10 16 0.00 0.00
7:53 am 07:53 Sunny 80 26.7 22 -5.6 11 11 N 8 13 30.11 1020 10 16 0.00 0.00
8:53 am 08:53 Sunny 83 28.3 21 -6.1 10 10 N 10 17 30.12 1020 10 16 0.00 0.00
9:53 am 09:53 Sunny 85 29.4 20 -6.7 9 9 VRB 3 6 30.11 1020 10 16 0.00 0.00
10:53 am 10:53 Sunny 88 31.1 20 -6.7 8 8 ESE 7 11 30.11 1020 10 16 0.00 0.00
11:53 am 11:53 Sunny 89 31.7 20 -6.7 8 8 WNW 6 9 30.10 1019 10 16 0.00 0.00
12:53 pm 12:53 Sunny 91 32.8 20 -6.7 7 7 SSW 8 13 30.08 1019 10 16 0.00 0.00
1:53 pm 13:53 Sunny 93 33.9 20 -6.7 7 7 SSE 5 7 30.06 1018 10 16 0.00 0.00
2:53 pm 14:53 Sunny 95 35 21 -6.1 7 7 ESE 7 11 30.04 1017 10 16 0.00 0.00
3:53 pm 15:53 Sunny 96 35.6 22 -5.6 7 7 Calm 30.02 1017 10 16 0.00 0.00
4:53 pm 16:53 Sunny 95 35 23 -5 7 7 VRB 3 6 30.00 1016 10 16 0.00 0.00
5:53 pm 17:53 Sunny 96 35.6 23 -5 7 7 Calm 29.98 1015 10 16 0.00 0.00
6:53 pm 18:53 Sunny 95 35 24 -4.4 8 8 SW 3 6 29.98 1015 10 16 0.00 0.00
7:53 pm 19:53 Sunny 93 33.9 24 -4.4 8 8 Calm 29.98 1015 10 16 0.00 0.00
8:53 pm 20:53 Clear 91 32.8 26 -3.3 9 9 Calm 29.99 1016 10 16 0.00 0.00
9:53 pm 21:53 Clear 87 30.6 31 -0.6 13 13 NW 5 7 30.01 1016 10 16 0.00 0.00
10:53 pm 22:53 Clear 84 28.9 32 0 15 15 NW 5 7 30.02 1017 10 16 0.00 0.00
11:53 pm 23:53 Clear 82 27.8 32 0 16 16 NW 6 9 30.02 1017 10 16 0.00 0.00

Powered by AerisWeather